Lid_Strength_Index
-1 -1 0 3 10 9 13 11 8 9 8 5 5 6 8 7 9 12 1 0 -0 -0 -1 -1 -2 -1 -1 -2 -1 -1 -1 -1 -1 -1 -1 -1 -1 -1 -1 -1 -1 -2 -2 -2 -2 -2 -2 -2 -2
-0 0 2 5 12 15 14 9 10 8 6 5 5 5 7 8 4 3 2 0 -0 -1 -1 -1 -1 -2 -1 -2 -1 -1 -1 -1 -1 -1 -1 -1 -1 -1 -1 -1 -1 -2 -2 -2 -2 -2 -2 -2 -2
0 0 6 9 11 14 14 9 8 7 5 6 7 5 6 7 4 3 1 -0 -0 -1 -1 -1 -1 -2 -1 -1 -1 -1 -1 -1 -1 -1 -1 -1 -1 -1 -1 -2 -1 -2 -2 -2 -2 -2 -2 -2 -2
2 3 5 11 12 10 9 8 7 8 6 5 5 8 5 2 3 1 -0 -1 -0 -1 -1 -1 -2 -2 -1 -1 -1 -1 -1 -1 -1 -1 -1 -1 -1 -2 -2 -2 -2 -2 -1 -2 -2 -2 -2 -2 -2
2 5 10 9 10 8 7 6 6 7 6 6 5 8 7 3 1 0 -0 -0 -0 -0 -1 -1 -2 -2 -1 -1 -1 -1 -1 -1 -1 -1 -1 -1 -2 -2 -2 -2 -2 -2 -2 -2 -2 -2 -2 -2 -2
6 5 12 11 10 8 6 5 6 6 6 6 6 7 6 2 2 1 1 0 -0 -0 -1 -1 -1 -2 -1 -1 -1 -1 -1 -1 -1 -1 -1 -1 -2 -2 -2 -2 -2 -2 -2 -2 -2 -2 -2 -1 -2
7 8 10 9 9 8 7 5 6 6 6 6 5 8 5 3 1 2 1 1 -1 -1 -1 -1 -1 -1 -1 -1 -1 -1 -1 -1 -1 -1 -1 -1 -1 -2 -2 -2 -2 -2 -2 -2 -2 -2 -1 -1 -1
5 7 11 8 9 9 6 5 4 6 6 3 3 7 7 3 1 2 0 1 -0 -1 -1 -1 -1 -1 -2 -1 -1 -1 -1 -1 -1 -1 -1 -1 -2 -2 -2 -2 -2 -2 -2 -2 -2 -1 -2 -2 -2
3 11 11 9 9 8 5 6 4 3 5 4 4 4 3 2 1 2 3 2 1 0 -0 -1 -1 -1 -1 -1 -1 -1 -1 -1 -1 -1 -1 -1 -2 -1 -2 -2 -2 -2 -2 -2 -1 -1 -2 -2 -2
6 10 8 6 6 6 6 6 5 6 6 6 5 3 2 2 2 3 3 2 2 1 0 -0 -0 -1 -1 -1 -2 -2 -2 -2 -1 -2 -2 -2 -2 -2 -1 -2 -2 -1 -2 -1 -2 -1 -2 -2 -1
6 8 6 6 5 5 6 6 5 6 8 6 6 4 3 3 3 2 2 2 2 1 0 -0 -1 -1 -1 -1 -1 -1 -1 -1 -2 -2 -2 -2 -2 -2 -1 -1 -2 -2 -2 -1 -1 -1 -1 -1 -1
7 6 5 5 5 5 6 5 6 5 6 4 4 3 3 3 3 3 2 2 1 1 0 -0 -1 -1 -1 -2 -1 -1 -1 -2 -1 -2 -2 -2 -1 -1 -1 -2 -1 -2 -1 -1 -2 -1 -1 -1 -1
6 6 5 5 5 5 5 6 6 6 4 3 3 3 3 3 3 2 2 1 1 1 2 -0 -1 -1 -1 -1 -1 -1 -1 -1 -1 -1 -1 -1 -1 -1 -1 -1 -1 -1 -2 -1 -1 -1 -1 -1 -1
5 5 5 5 5 5 6 6 5 5 4 4 3 4 3 3 3 2 2 3 2 1 0 -0 -0 -1 -1 -1 -1 -1 -1 -1 -1 -1 -1 -2 -1 -2 -1 -0 -1 -1 -1 -1 -1 -1 -1 -0 -1
5 6 5 5 5 6 5 8 8 5 4 5 5 4 4 3 2 2 2 2 1 1 1 -0 -0 -1 -1 -0 -1 -1 -1 -1 -1 -1 -2 -2 -3 -2 -1 -1 -1 -1 -2 -2 -2 -1 -1 -0 -1
5 6 8 6 6 5 6 10 7 4 5 5 5 5 4 3 3 2 2 3 1 1 1 -0 -0 -0 -1 -0 -1 -1 -1 -1 -1 -1 -1 -2 -2 -2 -1 -0 -1 -1 -1 -1 -0 -1 0 0 -0
6 8 7 7 5 6 7 9 6 5 5 6 5 5 4 4 3 2 2 2 1 1 1 0 -0 -0 -0 -1 -1 -1 -2 -1 -1 -1 -2 -2 -2 -2 -2 -1 -0 -1 -1 -0 -0 -0 -0 1 0
8 8 7 7 6 6 7 8 7 5 5 6 6 5 5 5 4 2 2 1 1 1 1 0 0 -0 -0 -1 -1 -1 -1 -1 -1 -1 -1 -1 -2 -2 -2 -1 -1 -1 -0 -0 -0 -0 -0 1 0
6 7 7 7 6 7 7 8 7 6 6 6 6 5 5 4 3 2 2 1 1 0 0 0 1 0 -0 0 1 0 1 0 -0 -1 -2 -1 -2 -2 -2 -1 -1 -1 -0 0 -0 -0 -0 0 0
6 7 7 7 6 7 7 8 7 6 6 5 5 5 5 4 3 2 2 1 1 1 0 0 0 -0 -0 0 -0 -0 -0 -0 -0 -1 -2 -2 -2 -2 -1 -1 -1 -1 -1 0 -0 -0 1 1 0
6 7 7 7 6 6 8 9 9 7 5 5 4 4 4 4 4 3 2 2 1 1 1 0 0 0 -0 -1 -0 -0 -0 -0 0 -0 -0 -1 -1 -2 -2 -2 -1 -1 -0 1 0 -0 0 1 0
7 6 6 7 7 9 6 18 10 8 8 6 5 5 4 4 3 3 2 2 2 1 0 0 -0 -0 -0 -1 -0 -0 1 2 1 0 -0 -1 -2 -1 -2 -2 -1 -1 -0 0 -0 -1 -0 0 2
7 5 6 6 7 7 7 10 9 8 9 7 6 5 4 3 3 3 2 2 1 1 1 0 0 0 -0 -0 -0 0 1 1 0 0 -1 -1 -1 -1 -1 -2 -1 -1 -0 -0 -0 -0 -0 -0 0
5 6 6 6 7 10 8 11 15 10 8 7 5 5 4 3 3 3 2 1 1 1 1 1 0 0 -0 -0 -0 0 0 1 1 0 1 0 0 -0 -1 -1 -1 -1 -1 -0 0 -0 -0 0 0
5 7 10 10 10 13 7 10 8 6 6 6 5 5 4 3 3 3 3 2 2 1 1 1 1 1 0 0 0 0 0 0 1 0 1 1 1 1 -0 -1 -1 -0 -1 -0 -0 -0 0 0 0
6 7 10 12 11 10 7 13 10 5 4 4 4 4 3 3 3 3 2 2 2 1 1 1 1 1 1 1 0 0 0 0 0 0 0 1 0 0 -1 -1 -1 -1 -1 -1 -0 -0 0 0 0
7 8 6 8 8 11 10 8 6 5 5 5 4 4 4 3 3 2 2 2 2 1 1 1 1 1 1 0 0 0 0 0 0 -0 -0 -0 -0 -0 -1 -1 -1 -1 -1 -0 -1 0 0 0 0
6 5 8 8 12 12 11 11 11 9 7 5 5 5 4 3 3 3 2 2 1 1 1 1 0 1 0 0 0 0 0 0 -0 -0 0 -0 -0 -1 -1 -1 -1 -0 -1 -1 -1 -0 -0 0 0
6 7 7 7 8 11 11 13 8 7 6 5 5 4 4 3 3 3 3 2 2 1 1 1 1 1 1 1 0 0 0 0 -0 0 -0 -0 -0 -0 -0 -0 -0 -0 -0 -0 -0 -0 -0 0 1
5 6 6 9 10 8 9 10 8 8 5 4 5 4 4 3 3 3 2 2 2 2 1 1 1 1 1 0 0 0 0 0 0 0 -0 -0 -0 -0 -0 -0 0 0 0 -0 0 0 0 0 1